CZ-4 DEB, 26300

Orbit data source: Space-Track

CZ-4 DEB, 26300 is space debris in SSO originally from a launch on Thu, 14 Oct 1999 UTC launched from the Taiyaun Space Center, China (TSC). Debris objects in space refer to the collection of defunct objects orbiting the Earth. Examples of debris include non-operational satellites, rocket bodies, and fragments generated from explosions, collisions, or faulty payload assembly.

Loading next visibility...
Identifier
26300, 1999-057GL
Orbit
SSO
Country
Flag of CNCN / PRC
Related business
Manufacturer
Unknown
Mission
Spacecraft
Bus & Motor
Unknown
Mass
Unknown
Launch date (UTC)
1999-10-14 (26 years ago)
Launch vehicle
Unknown
Launch site
Taiyaun Space Center, China (TSC)
Object type
Payload
Rocket body
Debris
Shape & HBR
Unknown shape, 0.1 m
Radar Cross Section
Small (<0.1 m²)

Expand to show TLE details & history
Last TLE update: 19 hours ago

TLE from 19 hours ago
0 CZ-4 DEB
1 26300U 99057GL  25349.93124396  .00003195  00000-0  55219-3 0  9994
2 26300  98.3788  50.7511 0061574 103.2155  73.7583 14.67896106359227
Epoch: 2025-12-15T22:20Z
TLE epoch observation values (Epoch: 2025-12-15T22:20:59.478Z)
Latitude
2.21703°
Longitude
171.00549°
Altitude
658.633 km
Speed
7.535 km/s
True Right ascension
15h 24m 18s
True Declination
2° 12' 13"
Sunlit
Object was in daylight at epoch
Visualization orbit readout
Latitude
Unknown
Longitude
Unknown
Altitude
Unknown
Speed
Unknown
Apparent Right ascension
Unknown
Apparent Declination
Unknown
Sunlit
N/A
Visualization observer readout
Local Sidereal Time
15:46:43
Azimuth
Unknown
Elevation
Unknown
Doppler factor
Unknown
Orbital elements
Apogee altitude
708.238 km
Perigee altitude
621.505 km
Semi-major axis
7,043.008 km
Eccentricity
0.00616
Inclination
98.3788°
RAAN
50.7511°
Arg. of periapsis
103.2155°
True anomaly
74.43717°
Mean anomaly
73.7583°
Eccentric anomaly
74.09759°
Mean motion
3.67203 °/min
Orbital period
98.04 mins
BSTAR
0.00055219
Loading maneuver chart data...
Computing Atmospheric mass density...

Documentation

Showing up to 5 results
|